Regional Weather Roundup
Issued by NWS Glasgow, MT

Home | Current Version | Previous Version | Text Only | Print | Product List | Glossary On
Versions: 1 2 3 4 5 6 7 8 9 10 11 12 13 14 15 16 17 18 19 20 21 22 23 24 25 26 27 28 29 30 31 32 33 34 35 36 37 38 39 40 41 42 43 44 45 46 47 48 49 50
000
ASUS45 KGGW 231415
RWRGGW
HOURLY WEATHER ROUNDUP FOR NORTHEAST MONTANA
NATIONAL WEATHER SERVICE GLASGOW MONTANA
800 AM MDT SAT AUG 23 2014

NOTE: "FAIR" INDICATES FEW OR NO CLOUDS BELOW 12,000 FEET WITH NO
SIGNIFICANT WEATHER AND/OR OBSTRUCTIONS TO VISISBILITY.

NORTHEAST MONTANA


CITY           SKY/WX    TMP DP  RH WIND       PRES   REMARKS
GLASGOW        LGT RAIN  55  53  93 NE24G37   30.01S
PLENTYWOOD       N/A     54  51  90 NE15        N/A
WOLF POINT     RAIN      57  53  86 NE24G31   30.03S FOG
JORDAN           N/A     57  55  93 NE20G30   29.94F
WINNETT          N/A     56  54  93 NE10        N/A
SIDNEY         CLOUDY    57  55  94 NE15      30.03S
GLENDIVE       CLOUDY    57  55  94 NE20G26   29.97F
MALTA            N/A     56  55  97 NE13        N/A
SCOBEY           N/A     52  49  89 N15G21    30.09F

FORT PECK REPORTS


CITY           SKY/WX    TMP DP  RH WIND       PRES   REMARKS
FORT PECK        N/A     53  53 100 NE35G43     N/A
THE PINES        N/A     57  54  89 NE33G46     N/A

SOUTHEAST MONTANA


CITY           SKY/WX    TMP DP  RH WIND       PRES   REMARKS
BILLINGS       RAIN      56  56 100 SW10      29.88F VSB 1/4
MILES CITY     CLOUDY    63  61  93 NE9       29.88F
BAKER          RAIN      61  59  93 E21G30    29.94R FOG
LIVINGSTON     RAIN      50  47  89 W6        30.01R FOG

CENTRAL MONTANA


CITY           SKY/WX    TMP DP  RH WIND       PRES   REMARKS
HAVRE          LGT RAIN  54  52  93 NE20      30.11S
LEWISTOWN      HVY RAIN  54  51  90 N15       30.00R FOG
GREAT FALLS    HVY RAIN  48  48 100 NW15      30.09S FOG
CUT BANK       RAIN      45  43  93 N20       30.23R FOG
HELENA         RAIN      47  45  93 NW9       30.12S FOG
BUTTE          RAIN      45  42  89 NW13      30.11R
BOZEMAN        LGT RAIN  48  47  96 NW10      30.03S

WESTERN MONTANA


CITY           SKY/WX    TMP DP  RH WIND       PRES   REMARKS
MISSOULA       LGT RAIN  53  44  71 N10       30.14R
KALISPELL      NOT AVBL

NORTH DAKOTA


CITY           SKY/WX    TMP DP  RH WIND       PRES   REMARKS
WILLISTON      LGT RAIN  57  52  83 NE16G22   30.07S
DICKINSON      LGT RAIN  58  57  97 E20       29.98S
MINOT          CLOUDY    56  52  86 NE12      30.08F
BISMARCK       LGT RAIN  61  59  93 E12       30.02S

SOUTHERN SASKATCHEWAN


CITY           SKY/WX    TMP DP  RH WIND       PRES   REMARKS
REGINA         CLOUDY    54  48  82 NE17      30.21S
ESTEVAN        DRIZZLE   54  52  94 NE13      30.14S FOG
SWIFT CURRENT  CLOUDY    52  50  93 NE14G21   30.20F




USA.gov is the U.S. government's official web portal to all federal, state and local government web resources and services.